| time (UTC) | temp F | wind direction | speed MPH | gust MPH | rain 1hr in | rain 24hr in | rain mn in | humidity % | barometer mb |
| 20260903182538 | 83 | 0 | 0.0 | 5.0 | 0.00 | 0.24 | 0.01 | 83 | 1014.3 |
| 20260903182041 | 82 | 0 | 0.0 | 5.0 | 0.00 | 0.24 | 0.01 | 84 | 1014.3 |
| 20260903181558 | 82 | 0 | 0.0 | 5.0 | 0.00 | 0.24 | 0.01 | 83 | 1014.4 |
| 20260903181038 | 82 | 0 | 0.0 | 5.0 | 0.00 | 0.24 | 0.01 | 84 | 1014.4 |
| 20260903180538 | 82 | 0 | 0.0 | 3.0 | 0.00 | 0.24 | 0.01 | 84 | 1014.5 |
| 20260903180105 | 82 | 0 | 0.0 | 3.0 | 0.00 | 0.24 | 0.01 | 84 | 1014.6 |
| 20260903175540 | 81 | 0 | 0.0 | 3.0 | 0.00 | 0.24 | 0.01 | 84 | 1014.5 |
| 20260903175037 | 81 | 0 | 0.0 | 3.0 | 0.00 | 0.24 | 0.01 | 85 | 1014.7 |
| 20260903174604 | 81 | 0 | 0.0 | 0.0 | 0.00 | 0.24 | 0.01 | 87 | 1014.9 |
| 20260903174037 | 81 | 0 | 0.0 | 3.0 | 0.00 | 0.24 | 0.01 | 86 | 1014.9 |
| 20260903173542 | 82 | 0 | 0.0 | 3.0 | 0.00 | 0.24 | 0.01 | 87 | 1015.1 |
| 20260903173056 | 82 | 0 | 0.0 | 6.0 | 0.00 | 0.24 | 0.01 | 86 | 1015.2 |
| 20260903172538 | 82 | 0 | 0.0 | 6.0 | 0.00 | 0.24 | 0.01 | 86 | 1015.3 |
| 20260903172038 | 82 | 0 | 0.0 | 1.0 | 0.00 | 0.24 | 0.01 | 85 | 1015.6 |
| 20260903171614 | 82 | 0 | 0.0 | 0.0 | 0.00 | 0.24 | 0.01 | 86 | 1015.5 |
| 20260903171037 | 82 | 0 | 0.0 | 0.0 | 0.00 | 0.24 | 0.01 | 85 | 1015.6 |
| 20260903170538 | 82 | 0 | 0.0 | 0.0 | 0.00 | 0.24 | 0.01 | 85 | 1015.5 |
| 20260903165538 | 82 | 0 | 0.0 | 0.0 | 0.00 | 0.24 | 0.01 | 86 | 1015.3 |
| 20260903165040 | 82 | 0 | 0.0 | 0.0 | 0.00 | 0.24 | 0.01 | 85 | 1015.2 |
| 20260903164619 | 83 | 0 | 0.0 | 0.0 | 0.00 | 0.24 | 0.01 | 86 | 1015.1 |
| 20260903164038 | 83 | 0 | 0.0 | 0.0 | 0.00 | 0.24 | 0.01 | 87 | 1015.1 |
| 20260903163537 | 83 | 0 | 0.0 | 0.0 | 0.00 | 0.24 | 0.01 | 87 | 1015.2 |
| 20260903163101 | 82 | 0 | 0.0 | 0.0 | 0.00 | 0.24 | 0.01 | 87 | 1015.1 |
| 20260903162538 | 83 | 0 | 0.0 | 0.0 | 0.00 | 0.24 | 0.01 | 88 | 1015.1 |
| 20260903162038 | 82 | 0 | 0.0 | 0.0 | 0.00 | 0.24 | 0.01 | 88 | 1015.1 |
| 20260903161559 | 82 | 0 | 0.0 | 0.0 | 0.00 | 0.24 | 0.01 | 88 | 1015.2 |
| 20260903161037 | 82 | 0 | 0.0 | 0.0 | 0.00 | 0.24 | 0.01 | 88 | 1015.3 |
| 20260903160538 | 82 | 0 | 0.0 | 0.0 | 0.00 | 0.24 | 0.01 | 88 | 1015.4 |
| 20260903160059 | 82 | 0 | 0.0 | 0.0 | 0.00 | 0.24 | 0.01 | 88 | 1015.3 |
| 20260903155538 | 82 | 0 | 0.0 | 0.0 | 0.00 | 0.24 | 0.01 | 88 | 1015.3 |
| 20260903155038 | 82 | 0 | 0.0 | 0.0 | 0.00 | 0.24 | 0.01 | 88 | 1015.3 |
| 20260903154600 | 82 | 0 | 0.0 | 0.0 | 0.00 | 0.24 | 0.01 | 89 | 1015.3 |
| 20260903154041 | 82 | 0 | 0.0 | 0.0 | 0.00 | 0.24 | 0.01 | 90 | 1015.3 |
| 20260903153538 | 82 | 0 | 0.0 | 2.0 | 0.00 | 0.24 | 0.01 | 91 | 1015.3 |
| 20260903153100 | 81 | 0 | 0.0 | 2.0 | 0.00 | 0.24 | 0.01 | 91 | 1015.1 |
| 20260903152539 | 81 | 0 | 0.0 | 0.0 | 0.00 | 0.24 | 0.01 | 92 | 1015.2 |
| 20260903152041 | 80 | 0 | 0.0 | 0.0 | 0.00 | 0.24 | 0.01 | 93 | 1015.1 |
| 20260903151602 | 80 | 0 | 0.0 | 0.0 | 0.00 | 0.24 | 0.01 | 93 | 1015.3 |
| 20260903151038 | 80 | 0 | 0.0 | 0.0 | 0.00 | 0.24 | 0.01 | 94 | 1015.2 |
| 20260903150538 | 80 | 0 | 0.0 | 0.0 | 0.00 | 0.24 | 0.01 | 94 | 1015.3 |
| 20260903150100 | 80 | 0 | 0.0 | 3.0 | 0.00 | 0.24 | 0.01 | 94 | 1015.3 |
| 20260903145537 | 80 | 0 | 0.0 | 3.0 | 0.00 | 0.24 | 0.01 | 94 | 1015.1 |
| 20260903145037 | 80 | 88 | 0.0 | 0.0 | 0.00 | 0.24 | 0.01 | 94 | 1015.2 |
| 20260903144609 | 80 | 0 | 0.0 | 4.0 | 0.00 | 0.24 | 0.01 | 94 | 1015.2 |
| 20260903144040 | 80 | 0 | 0.0 | 4.0 | 0.00 | 0.24 | 0.01 | 95 | 1014.9 |
| 20260903143538 | 80 | 0 | 0.0 | 0.0 | 0.00 | 0.24 | 0.01 | 95 | 1015.0 |
| 20260903143056 | 80 | 0 | 0.0 | 0.0 | 0.00 | 0.24 | 0.01 | 95 | 1015.0 |
| 20260903142538 | 80 | 0 | 0.0 | 0.0 | 0.00 | 0.24 | 0.01 | 95 | 1014.9 |
| 20260903142038 | 79 | 0 | 0.0 | 0.0 | 0.00 | 0.24 | 0.01 | 95 | 1014.9 |
| 20260903141602 | 80 | 0 | 0.0 | 0.0 | 0.00 | 0.24 | 0.01 | 95 | 1014.9 |
| 20260903141039 | 80 | 0 | 0.0 | 0.0 | 0.00 | 0.24 | 0.01 | 95 | 1015.0 |
| 20260903140538 | 79 | 0 | 0.0 | 0.0 | 0.00 | 0.24 | 0.01 | 95 | 1014.8 |
| 20260903135537 | 79 | 0 | 0.0 | 0.0 | 0.00 | 0.24 | 0.01 | 95 | 1014.7 |
| 20260903135037 | 79 | 0 | 0.0 | 0.0 | 0.00 | 0.24 | 0.01 | 95 | 1014.7 |
| 20260903134613 | 79 | 0 | 0.0 | 0.0 | 0.00 | 0.24 | 0.01 | 95 | 1014.6 |
| 20260903134039 | 79 | 0 | 0.0 | 0.0 | 0.00 | 0.24 | 0.01 | 95 | 1014.6 |
| 20260903133541 | 79 | 0 | 0.0 | 0.0 | 0.00 | 0.24 | 0.01 | 95 | 1014.5 |
| 20260903133108 | 79 | 0 | 0.0 | 0.0 | 0.00 | 0.24 | 0.01 | 95 | 1014.5 |
| 20260903132538 | 79 | 0 | 0.0 | 0.0 | 0.00 | 0.24 | 0.01 | 95 | 1014.3 |
| 20260903132037 | 79 | 0 | 0.0 | 0.0 | 0.00 | 0.24 | 0.01 | 95 | 1014.5 |
| 20260903131602 | 79 | 0 | 0.0 | 0.0 | 0.00 | 0.24 | 0.01 | 95 | 1014.5 |
| 20260903131038 | 79 | 0 | 0.0 | 0.0 | 0.00 | 0.24 | 0.01 | 95 | 1014.3 |
| 20260903130538 | 79 | 0 | 0.0 | 0.0 | 0.00 | 0.24 | 0.01 | 95 | 1014.3 |
| 20260903130058 | 79 | 0 | 0.0 | 0.0 | 0.00 | 0.24 | 0.01 | 95 | 1014.3 |
| 20260903125538 | 79 | 0 | 0.0 | 0.0 | 0.00 | 0.24 | 0.01 | 95 | 1014.2 |
| 20260903125038 | 79 | 0 | 0.0 | 0.0 | 0.00 | 0.24 | 0.01 | 95 | 1014.1 |
| 20260903124614 | 79 | 0 | 0.0 | 0.0 | 0.01 | 0.24 | 0.01 | 95 | 1014.0 |
| 20260903124038 | 78 | 0 | 0.0 | 0.0 | 0.01 | 0.24 | 0.01 | 95 | 1013.8 |
| 20260903123537 | 78 | 0 | 0.0 | 0.0 | 0.01 | 0.24 | 0.01 | 95 | 1013.9 |
| 20260903123102 | 78 | 0 | 0.0 | 0.0 | 0.01 | 0.24 | 0.01 | 95 | 1013.7 |
| 20260903122538 | 78 | 0 | 0.0 | 0.0 | 0.01 | 0.24 | 0.01 | 95 | 1013.8 |
| 20260903122039 | 78 | 0 | 0.0 | 0.0 | 0.01 | 0.24 | 0.01 | 95 | 1013.7 |
| 20260903121606 | 78 | 0 | 0.0 | 0.0 | 0.01 | 0.24 | 0.01 | 95 | 1013.6 |
| 20260903121038 | 78 | 0 | 0.0 | 0.0 | 0.01 | 0.24 | 0.01 | 95 | 1013.5 |
| 20260903120542 | 78 | 0 | 0.0 | 0.0 | 0.01 | 0.24 | 0.01 | 95 | 1013.5 |
| 20260903120100 | 78 | 0 | 0.0 | 0.0 | 0.01 | 0.24 | 0.01 | 95 | 1013.6 |
| 20260903115537 | 78 | 0 | 0.0 | 0.0 | 0.01 | 0.24 | 0.01 | 95 | 1013.6 |
| 20260903115038 | 78 | 0 | 0.0 | 0.0 | 0.00 | 0.23 | 0.00 | 95 | 1013.5 |
| 20260903114600 | 78 | 0 | 0.0 | 0.0 | 0.00 | 0.23 | 0.00 | 95 | 1013.5 |
| 20260903114037 | 78 | 0 | 0.0 | 0.0 | 0.00 | 0.23 | 0.00 | 95 | 1013.4 |
| 20260903113537 | 78 | 0 | 0.0 | 0.0 | 0.00 | 0.23 | 0.00 | 95 | 1013.4 |
| 20260903113139 | 78 | 0 | 0.0 | 0.0 | 0.00 | 0.23 | 0.00 | 95 | 1013.4 |
| 20260903112538 | 78 | 0 | 0.0 | 0.0 | 0.00 | 0.23 | 0.00 | 95 | 1013.4 |
| 20260903112038 | 78 | 0 | 0.0 | 0.0 | 0.00 | 0.23 | 0.00 | 95 | 1013.3 |
| 20260903111600 | 78 | 0 | 0.0 | 0.0 | 0.00 | 0.23 | 0.00 | 95 | 1013.2 |
| 20260903111038 | 78 | 0 | 0.0 | 0.0 | 0.00 | 0.23 | 0.00 | 95 | 1013.3 |
| 20260903110538 | 78 | 0 | 0.0 | 0.0 | 0.00 | 0.23 | 0.00 | 95 | 1013.4 |
| 20260903110100 | 78 | 0 | 0.0 | 0.0 | 0.00 | 0.23 | 0.00 | 95 | 1013.3 |
| 20260903105539 | 78 | 0 | 0.0 | 0.0 | 0.00 | 0.23 | 0.00 | 95 | 1013.3 |
| 20260903105038 | 78 | 0 | 0.0 | 0.0 | 0.00 | 0.23 | 0.00 | 94 | 1013.2 |
| 20260903104611 | 78 | 0 | 0.0 | 0.0 | 0.00 | 0.23 | 0.00 | 94 | 1013.2 |
| 20260903104038 | 78 | 0 | 0.0 | 0.0 | 0.00 | 0.23 | 0.00 | 94 | 1013.2 |
| 20260903103537 | 78 | 0 | 0.0 | 0.0 | 0.00 | 0.23 | 0.00 | 94 | 1013.2 |
| 20260903103101 | 78 | 0 | 0.0 | 0.0 | 0.00 | 0.23 | 0.00 | 94 | 1013.2 |
| 20260903102539 | 78 | 0 | 0.0 | 0.0 | 0.00 | 0.23 | 0.00 | 94 | 1013.2 |
| 20260903102038 | 78 | 0 | 0.0 | 0.0 | 0.00 | 0.23 | 0.00 | 95 | 1013.3 |
| 20260903101602 | 78 | 0 | 0.0 | 0.0 | 0.00 | 0.23 | 0.00 | 95 | 1013.2 |
| 20260903101038 | 78 | 0 | 0.0 | 0.0 | 0.00 | 0.23 | 0.00 | 94 | 1013.3 |
| 20260903100538 | 78 | 0 | 0.0 | 0.0 | 0.00 | 0.23 | 0.00 | 94 | 1013.2 |
| 20260903100059 | 78 | 0 | 0.0 | 0.0 | 0.00 | 0.23 | 0.00 | 94 | 1013.3 |
| 20260903095537 | 78 | 0 | 0.0 | 0.0 | 0.00 | 0.23 | 0.00 | 94 | 1013.3 |
| 20260903095037 | 78 | 0 | 0.0 | 0.0 | 0.00 | 0.23 | 0.00 | 94 | 1013.4 |
| 20260903094558 | 78 | 0 | 0.0 | 0.0 | 0.00 | 0.23 | 0.00 | 94 | 1013.2 |
| 20260903094038 | 78 | 0 | 0.0 | 0.0 | 0.00 | 0.23 | 0.00 | 94 | 1013.2 |
| 20260903093538 | 78 | 0 | 0.0 | 0.0 | 0.00 | 0.23 | 0.00 | 94 | 1013.3 |
| 20260903093106 | 78 | 0 | 0.0 | 0.0 | 0.00 | 0.23 | 0.00 | 94 | 1013.2 |
| 20260903092537 | 78 | 0 | 0.0 | 0.0 | 0.00 | 0.23 | 0.00 | 94 | 1013.2 |
| 20260903092039 | 78 | 0 | 0.0 | 0.0 | 0.00 | 0.23 | 0.00 | 94 | 1013.2 |
| 20260903091602 | 78 | 0 | 0.0 | 0.0 | 0.00 | 0.23 | 0.00 | 94 | 1013.2 |
| 20260903091038 | 78 | 0 | 0.0 | 0.0 | 0.00 | 0.23 | 0.00 | 94 | 1013.3 |
| 20260903090538 | 78 | 0 | 0.0 | 0.0 | 0.00 | 0.23 | 0.00 | 94 | 1013.4 |
| 20260903090105 | 78 | 0 | 0.0 | 0.0 | 0.00 | 0.23 | 0.00 | 94 | 1013.3 |
| 20260903085537 | 78 | 0 | 0.0 | 0.0 | 0.00 | 0.23 | 0.00 | 94 | 1013.3 |
| 20260903085037 | 78 | 0 | 0.0 | 0.0 | 0.00 | 0.23 | 0.00 | 94 | 1013.4 |
| 20260903084556 | 78 | 0 | 0.0 | 0.0 | 0.00 | 0.23 | 0.00 | 94 | 1013.2 |
| 20260903084038 | 78 | 0 | 0.0 | 0.0 | 0.00 | 0.23 | 0.00 | 94 | 1013.2 |
| 20260903083538 | 78 | 0 | 0.0 | 0.0 | 0.00 | 0.23 | 0.00 | 94 | 1013.2 |
| 20260903083054 | 78 | 0 | 0.0 | 0.0 | 0.00 | 0.23 | 0.00 | 94 | 1013.3 |
| 20260903082538 | 78 | 0 | 0.0 | 0.0 | 0.00 | 0.23 | 0.00 | 94 | 1013.2 |
| 20260903082038 | 78 | 0 | 0.0 | 0.0 | 0.00 | 0.23 | 0.00 | 94 | 1013.3 |
| 20260903081603 | 78 | 0 | 0.0 | 0.0 | 0.00 | 0.23 | 0.00 | 94 | 1013.3 |
| 20260903081037 | 78 | 0 | 0.0 | 0.0 | 0.00 | 0.23 | 0.00 | 94 | 1013.2 |
| 20260903080538 | 78 | 0 | 0.0 | 0.0 | 0.00 | 0.23 | 0.00 | 94 | 1013.2 |
| 20260903080103 | 78 | 0 | 0.0 | 0.0 | 0.00 | 0.23 | 0.00 | 94 | 1013.0 |
| 20260903075538 | 78 | 0 | 0.0 | 0.0 | 0.00 | 0.23 | 0.00 | 94 | 1013.0 |
| 20260903075038 | 78 | 0 | 0.0 | 0.0 | 0.00 | 0.23 | 0.00 | 94 | 1012.9 |
| 20260903074558 | 78 | 0 | 0.0 | 4.0 | 0.00 | 0.23 | 0.00 | 94 | 1012.9 |
| 20260903074038 | 78 | 0 | 0.0 | 4.0 | 0.00 | 0.23 | 0.00 | 94 | 1013.0 |
| 20260903073538 | 78 | 0 | 0.0 | 0.0 | 0.00 | 0.23 | 0.00 | 94 | 1012.8 |
| 20260903073104 | 78 | 0 | 0.0 | 0.0 | 0.00 | 0.23 | 0.00 | 94 | 1012.8 |
| 20260903072538 | 78 | 0 | 0.0 | 0.0 | 0.00 | 0.23 | 0.00 | 94 | 1012.8 |
| 20260903072038 | 78 | 0 | 0.0 | 0.0 | 0.00 | 0.23 | 0.00 | 94 | 1012.8 |
| 20260903071610 | 78 | 0 | 0.0 | 0.0 | 0.00 | 0.23 | 0.00 | 94 | 1012.8 |
| 20260903071038 | 78 | 0 | 0.0 | 0.0 | 0.00 | 0.23 | 0.00 | 94 | 1012.7 |
| 20260903070538 | 78 | 0 | 0.0 | 0.0 | 0.00 | 0.23 | 0.00 | 94 | 1012.9 |
| 20260903070100 | 77 | 0 | 0.0 | 0.0 | 0.00 | 0.23 | 0.00 | 94 | 1013.0 |
| 20260903065541 | 77 | 0 | 0.0 | 0.0 | 0.00 | 0.23 | 0.00 | 94 | 1013.0 |
| 20260903065038 | 77 | 0 | 0.0 | 0.0 | 0.00 | 0.23 | 0.00 | 94 | 1013.2 |
| 20260903064601 | 77 | 0 | 0.0 | 0.0 | 0.00 | 0.23 | 0.00 | 94 | 1013.1 |
| 20260903064039 | 77 | 0 | 0.0 | 0.0 | 0.00 | 0.23 | 0.00 | 93 | 1013.2 |
| 20260903063538 | 77 | 0 | 0.0 | 0.0 | 0.00 | 0.23 | 0.00 | 93 | 1013.2 |
| 20260903063103 | 77 | 0 | 0.0 | 0.0 | 0.00 | 0.23 | 0.00 | 93 | 1013.2 |
| 20260903062538 | 77 | 0 | 0.0 | 0.0 | 0.00 | 0.23 | 0.00 | 93 | 1013.3 |
| 20260903062044 | 77 | 0 | 0.0 | 0.0 | 0.00 | 0.23 | 0.00 | 93 | 1013.2 |
| 20260903061606 | 77 | 0 | 0.0 | 0.0 | 0.00 | 0.23 | 0.00 | 93 | 1013.3 |
| 20260903061041 | 77 | 0 | 0.0 | 0.0 | 0.00 | 0.23 | 0.00 | 93 | 1013.3 |
| 20260903060540 | 77 | 0 | 0.0 | 0.0 | 0.00 | 0.23 | 0.00 | 93 | 1013.2 |
| 20260903060106 | 77 | 0 | 0.0 | 0.0 | 0.00 | 0.23 | 0.00 | 93 | 1013.2 |
| 20260903055538 | 77 | 0 | 0.0 | 0.0 | 0.00 | 0.23 | 0.00 | 93 | 1013.5 |
| 20260903055039 | 77 | 0 | 0.0 | 5.0 | 0.00 | 0.23 | 0.00 | 93 | 1013.4 |
| 20260903054558 | 77 | 0 | 0.0 | 5.0 | 0.00 | 0.23 | 0.00 | 93 | 1013.4 |
| 20260903054040 | 77 | 0 | 0.0 | 9.0 | 0.00 | 0.23 | 0.00 | 93 | 1013.5 |
| 20260903053537 | 76 | 0 | 0.0 | 9.0 | 0.00 | 0.23 | 0.00 | 93 | 1013.5 |
| 20260903053055 | 76 | 0 | 1.0 | 12.0 | 0.00 | 0.23 | 0.00 | 93 | 1013.5 |
| 20260903052542 | 76 | 158 | 1.0 | 12.0 | 0.00 | 0.23 | 0.00 | 93 | 1013.5 |
| 20260903052039 | 76 | 0 | 1.0 | 12.0 | 0.00 | 0.23 | 0.00 | 93 | 1013.5 |
| 20260903051616 | 76 | 0 | 0.0 | 8.0 | 0.00 | 0.23 | 0.00 | 93 | 1013.6 |
| 20260903051037 | 76 | 0 | 0.0 | 9.0 | 0.00 | 0.23 | 0.00 | 93 | 1013.6 |
| 20260903050539 | 76 | 0 | 1.0 | 9.0 | 0.00 | 0.23 | 0.00 | 93 | 1013.6 |
| 20260903050058 | 76 | 0 | 0.0 | 9.0 | 0.00 | 0.23 | 0.00 | 93 | 1013.6 |
| 20260903045538 | 76 | 0 | 2.0 | 10.0 | 0.00 | 0.23 | 0.23 | 93 | 1013.7 |
| 20260903045037 | 76 | 0 | 2.0 | 10.0 | 0.00 | 0.23 | 0.23 | 93 | 1013.7 |
| 20260903044556 | 76 | 166 | 1.0 | 10.0 | 0.00 | 0.23 | 0.23 | 93 | 1013.8 |
| 20260903044041 | 76 | 0 | 1.0 | 10.0 | 0.00 | 0.23 | 0.23 | 93 | 1013.8 |
| 20260903043538 | 76 | 0 | 1.0 | 10.0 | 0.00 | 0.23 | 0.23 | 92 | 1013.9 |
| 20260903043157 | 75 | 0 | 0.0 | 10.0 | 0.00 | 0.23 | 0.23 | 93 | 1013.9 |
| 20260903042537 | 75 | 0 | 1.0 | 13.0 | 0.00 | 0.23 | 0.23 | 92 | 1013.9 |
| 20260903042037 | 75 | 163 | 1.0 | 13.0 | 0.00 | 0.23 | 0.23 | 92 | 1014.0 |
| 20260903041605 | 75 | 171 | 0.0 | 9.0 | 0.00 | 0.23 | 0.23 | 92 | 1014.0 |
| 20260903041041 | 75 | 0 | 0.0 | 10.0 | 0.00 | 0.23 | 0.23 | 92 | 1013.9 |
| 20260903040538 | 75 | 160 | 1.0 | 10.0 | 0.00 | 0.23 | 0.23 | 92 | 1014.0 |
| 20260903040056 | 75 | 0 | 1.0 | 8.0 | 0.00 | 0.23 | 0.23 | 92 | 1014.2 |
| 20260903035537 | 75 | 0 | 0.0 | 12.0 | 0.00 | 0.23 | 0.23 | 92 | 1014.3 |
| 20260903035038 | 75 | 148 | 2.0 | 12.0 | 0.00 | 0.23 | 0.23 | 92 | 1014.3 |
| 20260903034550 | 75 | 163 | 1.0 | 8.0 | 0.01 | 0.23 | 0.23 | 92 | 1014.1 |
| 20260903034037 | 75 | 0 | 2.0 | 11.0 | 0.01 | 0.23 | 0.23 | 92 | 1014.2 |
| 20260903033537 | 76 | 148 | 4.0 | 11.0 | 0.02 | 0.23 | 0.23 | 91 | 1014.2 |
| 20260903033100 | 76 | 152 | 4.0 | 12.0 | 0.08 | 0.23 | 0.23 | 91 | 1014.1 |
| 20260903032538 | 76 | 145 | 1.0 | 12.0 | 0.16 | 0.23 | 0.23 | 92 | 1014.2 |
| 20260903032037 | 76 | 0 | 4.0 | 12.0 | 0.22 | 0.23 | 0.23 | 91 | 1014.4 |
| 20260903031558 | 77 | 0 | 2.0 | 12.0 | 0.23 | 0.23 | 0.23 | 91 | 1014.3 |
| 20260903031038 | 77 | 0 | 2.0 | 12.0 | 0.23 | 0.23 | 0.23 | 91 | 1014.3 |
| 20260903030538 | 77 | 140 | 4.0 | 14.0 | 0.23 | 0.23 | 0.23 | 91 | 1014.2 |
| 20260903030055 | 77 | 162 | 5.0 | 15.0 | 0.23 | 0.23 | 0.23 | 91 | 1014.1 |
| 20260903025539 | 77 | 151 | 5.0 | 16.0 | 0.23 | 0.23 | 0.23 | 91 | 1014.1 |
| 20260903025038 | 78 | 144 | 6.0 | 16.0 | 0.23 | 0.23 | 0.23 | 90 | 1014.0 |
| 20260903024605 | 78 | 165 | 1.0 | 13.0 | 0.22 | 0.22 | 0.22 | 90 | 1013.9 |
| 20260903024037 | 78 | 166 | 3.0 | 13.0 | 0.21 | 0.21 | 0.21 | 90 | 1014.1 |
| 20260903023537 | 78 | 169 | 3.0 | 16.0 | 0.20 | 0.20 | 0.20 | 89 | 1013.9 |
| 20260903023101 | 79 | 165 | 8.0 | 16.0 | 0.14 | 0.14 | 0.14 | 88 | 1013.8 |
| 20260903022538 | 80 | 242 | 3.0 | 13.0 | 0.06 | 0.06 | 0.06 | 88 | 1014.2 |
| 20260903022037 | 80 | 0 | 4.0 | 13.0 | 0.01 | 0.01 | 0.01 | 87 | 1014.0 |
| 20260903021600 | 80 | 229 | 4.0 | 13.0 | 0.00 | 0.00 | 0.00 | 87 | 1013.8 |
| 20260903021039 | 80 | 207 | 3.0 | 13.0 | 0.00 | 0.00 | 0.00 | 87 | 1013.6 |
| 20260903020539 | 80 | 178 | 4.0 | 13.0 | 0.00 | 0.00 | 0.00 | 87 | 1012.9 |
| 20260903015538 | 80 | 0 | 4.0 | 19.0 | 0.00 | 0.00 | 0.00 | 86 | 1012.4 |
| 20260903015037 | 80 | 98 | 5.0 | 19.0 | 0.00 | 0.00 | 0.00 | 85 | 1012.3 |
| 20260903014600 | 80 | 110 | 2.0 | 13.0 | 0.00 | 0.00 | 0.00 | 85 | 1012.2 |
| 20260903014038 | 81 | 0 | 0.0 | 15.0 | 0.00 | 0.00 | 0.00 | 85 | 1012.3 |
| 20260903013540 | 82 | 0 | 2.0 | 15.0 | 0.00 | 0.00 | 0.00 | 84 | 1012.2 |
| 20260903013108 | 82 | 0 | 2.0 | 10.0 | 0.00 | 0.00 | 0.00 | 83 | 1012.3 |
| 20260903012539 | 82 | 90 | 0.0 | 14.0 | 0.00 | 0.00 | 0.00 | 82 | 1012.2 |
| 20260903012038 | 82 | 0 | 1.0 | 14.0 | 0.00 | 0.00 | 0.00 | 82 | 1012.1 |
| 20260903011554 | 82 | 0 | 1.0 | 13.0 | 0.00 | 0.00 | 0.00 | 81 | 1012.0 |
| 20260903011038 | 82 | 0 | 1.0 | 11.0 | 0.00 | 0.00 | 0.00 | 81 | 1012.1 |
| 20260903010538 | 83 | 95 | 0.0 | 11.0 | 0.00 | 0.00 | 0.00 | 81 | 1012.0 |
| 20260903010106 | 83 | 0 | 1.0 | 11.0 | 0.00 | 0.00 | 0.00 | 80 | 1012.1 |
| 20260903005538 | 83 | 59 | 1.0 | 10.0 | 0.00 | 0.00 | 0.00 | 80 | 1011.9 |
| 20260903005037 | 83 | 0 | 0.0 | 7.0 | 0.00 | 0.00 | 0.00 | 80 | 1011.9 |
| 20260903004606 | 83 | 0 | 0.0 | 5.0 | 0.00 | 0.00 | 0.00 | 79 | 1011.9 |
| 20260903004039 | 83 | 0 | 1.0 | 6.0 | 0.00 | 0.00 | 0.00 | 78 | 1011.9 |
| 20260903003538 | 83 | 0 | 0.0 | 6.0 | 0.00 | 0.00 | 0.00 | 78 | 1012.0 |
| 20260903003101 | 83 | 0 | 0.0 | 11.0 | 0.00 | 0.00 | 0.00 | 78 | 1011.9 |
| 20260903002538 | 83 | 0 | 1.0 | 13.0 | 0.00 | 0.00 | 0.00 | 78 | 1011.8 |
| 20260903002038 | 84 | 0 | 4.0 | 13.0 | 0.00 | 0.00 | 0.00 | 77 | 1011.7 |
| 20260903001555 | 84 | 61 | 1.0 | 16.0 | 0.00 | 0.00 | 0.00 | 76 | 1011.6 |
| 20260903001040 | 85 | 0 | 4.0 | 16.0 | 0.00 | 0.00 | 0.00 | 74 | 1011.5 |
| 20260903000538 | 86 | 40 | 4.0 | 16.0 | 0.00 | 0.00 | 0.00 | 72 | 1011.5 |
| 20260902235538 | 87 | 0 | 1.0 | 12.0 | 0.00 | 0.00 | 0.00 | 71 | 1011.6 |
| 20260902235037 | 88 | 0 | 0.0 | 12.0 | 0.00 | 0.00 | 0.00 | 70 | 1011.7 |
| 20260902234617 | 88 | 0 | 0.0 | 6.0 | 0.00 | 0.00 | 0.00 | 70 | 1011.4 |
| 20260902234037 | 88 | 0 | 0.0 | 8.0 | 0.00 | 0.00 | 0.00 | 69 | 1011.2 |
| 20260902233539 | 88 | 0 | 0.0 | 8.0 | 0.00 | 0.00 | 0.00 | 69 | 1011.1 |
| 20260902233103 | 88 | 0 | 0.0 | 12.0 | 0.00 | 0.00 | 0.00 | 69 | 1011.2 |
| 20260902232538 | 88 | 0 | 0.0 | 12.0 | 0.00 | 0.00 | 0.00 | 69 | 1011.3 |
| 20260902232038 | 89 | 0 | 1.0 | 12.0 | 0.00 | 0.00 | 0.00 | 68 | 1011.2 |
| 20260902231603 | 90 | 0 | 0.0 | 13.0 | 0.00 | 0.00 | 0.00 | 66 | 1011.3 |
| 20260902231038 | 91 | 0 | 2.0 | 13.0 | 0.00 | 0.00 | 0.00 | 64 | 1011.1 |
| 20260902230537 | 93 | 0 | 1.0 | 13.0 | 0.00 | 0.00 | 0.00 | 61 | 1011.2 |
| 20260902230107 | 94 | 0 | 0.0 | 11.0 | 0.00 | 0.00 | 0.00 | 57 | 1011.1 |
| 20260902225538 | 96 | 0 | 1.0 | 10.0 | 0.00 | 0.00 | 0.00 | 53 | 1011.1 |
| 20260902225041 | 98 | 0 | 0.0 | 7.0 | 0.00 | 0.00 | 0.00 | 49 | 1011.1 |
| 20260902224612 | 98 | 0 | 0.0 | 9.0 | 0.00 | 0.00 | 0.00 | 46 | 1011.0 |
| 20260902224037 | 98 | 0 | 1.0 | 9.0 | 0.00 | 0.00 | 0.00 | 46 | 1010.8 |
| 20260902223541 | 99 | 0 | 0.0 | 6.0 | 0.00 | 0.00 | 0.00 | 46 | 1010.7 |
| 20260902223054 | 99 | 0 | 0.0 | 6.0 | 0.00 | 0.00 | 0.00 | 45 | 1010.7 |
| 20260902222538 | 99 | 205 | 0.0 | 1.0 | 0.00 | 0.00 | 0.00 | 45 | 1010.6 |
| 20260902222039 | 99 | 0 | 0.0 | 1.0 | 0.00 | 0.00 | 0.00 | 44 | 1010.6 |
| 20260902221608 | 99 | 0 | 0.0 | 7.0 | 0.00 | 0.00 | 0.00 | 45 | 1010.4 |
| 20260902221038 | 99 | 0 | 0.0 | 7.0 | 0.00 | 0.00 | 0.00 | 45 | 1010.6 |
| 20260902220541 | 99 | 0 | 0.0 | 7.0 | 0.00 | 0.00 | 0.00 | 45 | 1010.7 |
| 20260902220109 | 99 | 0 | 0.0 | 5.0 | 0.00 | 0.00 | 0.00 | 45 | 1010.6 |
| 20260902215537 | 100 | 0 | 0.0 | 3.0 | 0.00 | 0.00 | 0.00 | 43 | 1010.6 |
| 20260902215038 | 101 | 0 | 0.0 | 5.0 | 0.00 | 0.00 | 0.00 | 42 | 1010.7 |
| 20260902214601 | 101 | 0 | 0.0 | 5.0 | 0.00 | 0.00 | 0.00 | 42 | 1010.6 |
| 20260902214039 | 101 | 0 | 0.0 | 5.0 | 0.00 | 0.00 | 0.00 | 42 | 1010.7 |
| 20260902213538 | 102 | 0 | 0.0 | 2.0 | 0.00 | 0.00 | 0.00 | 41 | 1010.8 |
| 20260902213057 | 103 | 0 | 0.0 | 8.0 | 0.00 | 0.00 | 0.00 | 40 | 1010.8 |
| 20260902212539 | 103 | 0 | 0.0 | 8.0 | 0.00 | 0.00 | 0.00 | 41 | 1010.8 |
| 20260902212038 | 102 | 0 | 0.0 | 8.0 | 0.00 | 0.00 | 0.00 | 41 | 1010.9 |
| 20260902211605 | 101 | 194 | 0.0 | 4.0 | 0.00 | 0.00 | 0.00 | 42 | 1011.1 |
| 20260902211037 | 103 | 0 | 0.0 | 4.0 | 0.00 | 0.00 | 0.00 | 40 | 1011.1 |
| 20260902210538 | 103 | 0 | 0.0 | 8.0 | 0.00 | 0.00 | 0.00 | 41 | 1011.1 |
| 20260902210058 | 103 | 0 | 1.0 | 14.0 | 0.00 | 0.00 | 0.00 | 40 | 1011.3 |
| 20260902205538 | 103 | 0 | 1.0 | 14.0 | 0.00 | 0.00 | 0.00 | 40 | 1011.1 |
| 20260902205038 | 103 | 0 | 1.0 | 8.0 | 0.00 | 0.00 | 0.00 | 40 | 1011.3 |
| 20260902204600 | 103 | 220 | 0.0 | 9.0 | 0.00 | 0.00 | 0.00 | 40 | 1011.2 |
| 20260902204038 | 103 | 0 | 0.0 | 9.0 | 0.00 | 0.00 | 0.00 | 39 | 1011.5 |
| 20260902203538 | 103 | 0 | 1.0 | 9.0 | 0.00 | 0.00 | 0.00 | 39 | 1011.2 |
| 20260902203108 | 102 | 271 | 0.0 | 5.0 | 0.00 | 0.00 | 0.00 | 41 | 1011.4 |
| 20260902202538 | 103 | 0 | 0.0 | 14.0 | 0.00 | 0.00 | 0.00 | 40 | 1011.4 |
| 20260902202038 | 103 | 0 | 2.0 | 14.0 | 0.00 | 0.00 | 0.00 | 40 | 1011.5 |
| 20260902201608 | 102 | 250 | 2.0 | 14.0 | 0.00 | 0.00 | 0.00 | 42 | 1011.4 |
| 20260902201039 | 102 | 212 | 4.0 | 13.0 | 0.00 | 0.00 | 0.00 | 41 | 1011.5 |
| 20260902200537 | 102 | 0 | 0.0 | 12.0 | 0.00 | 0.00 | 0.00 | 40 | 1011.5 |
| 20260902200125 | 103 | 0 | 0.0 | 8.0 | 0.00 | 0.00 | 0.00 | 41 | 1011.7 |
| 20260902195537 | 103 | 259 | 0.0 | 10.0 | 0.00 | 0.00 | 0.00 | 41 | 1011.8 |
| 20260902195037 | 103 | 0 | 0.0 | 14.0 | 0.00 | 0.00 | 0.00 | 41 | 1012.0 |
| 20260902194600 | 103 | 0 | 0.0 | 14.0 | 0.00 | 0.00 | 0.00 | 41 | 1012.0 |
| 20260902194037 | 103 | 263 | 1.0 | 13.0 | 0.00 | 0.00 | 0.00 | 42 | 1012.1 |
| 20260902193538 | 101 | 0 | 0.0 | 8.0 | 0.00 | 0.00 | 0.00 | 44 | 1012.2 |
| 20260902193102 | 100 | 0 | 0.0 | 1.0 | 0.00 | 0.00 | 0.00 | 44 | 1012.3 |
| 20260902192541 | 100 | 0 | 0.0 | 8.0 | 0.00 | 0.00 | 0.00 | 45 | 1012.5 |
| 20260902192038 | 101 | 0 | 0.0 | 8.0 | 0.00 | 0.00 | 0.00 | 42 | 1012.6 |
| 20260902191600 | 99 | 0 | 0.0 | 10.0 | 0.00 | 0.00 | 0.00 | 45 | 1012.7 |
| 20260902191038 | 101 | 0 | 0.0 | 10.0 | 0.00 | 0.00 | 0.00 | 43 | 1012.8 |
| 20260902190538 | 101 | 0 | 0.0 | 10.0 | 0.00 | 0.00 | 0.00 | 44 | 1012.7 |
| 20260902185540 | 97 | 0 | 1.0 | 15.0 | 0.00 | 0.00 | 0.00 | 49 | 1012.9 |
| 20260902185037 | 99 | 0 | 0.0 | 15.0 | 0.00 | 0.00 | 0.00 | 46 | 1013.0 |
| 20260902184626 | 99 | 0 | 1.0 | 12.0 | 0.00 | 0.00 | 0.00 | 47 | 1013.0 |
| 20260902184037 | 101 | 0 | 0.0 | 12.0 | 0.00 | 0.00 | 0.00 | 43 | 1013.0 |
| 20260902183538 | 103 | 0 | 1.0 | 12.0 | 0.00 | 0.00 | 0.00 | 43 | 1013.2 |
| 20260902183109 | 101 | 0 | 1.0 | 12.0 | 0.00 | 0.00 | 0.00 | 45 | 1013.3 |